Regional Weather Roundup
Issued by NWS

Home | Current Version | Previous Version | Graphics & Text | Print | Product List | Glossary On
Versions: 1 2 3 4 5 6 7 8 9 10 11 12 13 14 15 16 17 18 19 20 21 22 23 24 25 26 27 28 29 30 31 32 33 34 35 36 37 38 39 40 41 42 43 44 45 46 47 48 49 50
000
ASUS45 KBOU 182107
RWRCO

WEATHER ROUNDUP FOR COLORADO
NATIONAL WEATHER SERVICE DENVER/BOULDER CO
200 PM MST THU DEC 18 2014

NOTE: "FAIR" INDICATES FEW OR NO CLOUDS BELOW 12000 FEET WITH NO
SIGNIFICANT WEATHER AND/OR OBSTRUCTIONS TO VISIBILITY.

COZ001>005-013-030-031-182200-
...NORTHWEST COLORADO...

CITY           SKY/WX    TMP DP  RH WIND       PRES   REMARKS
CRAIG          CLOUDY    27  24  89 S3        30.11F
HAYDEN         MOSUNNY   27  21  80 SW6       30.10S WCI  20
MEEKER         LGT SNOW  30  25  81 CALM      30.10F
MOUNT WERNER   NOT AVBL
STEAMBOAT SPGS PTSUNNY   31  23  70 CALM      30.08F
WALDEN         PTSUNNY   12   9  85 CALM      30.05S
$$

COZ006>008-011-182200-
...WEST CENTRAL VALLEYS...

CITY           SKY/WX    TMP DP  RH WIND       PRES   REMARKS
GRAND JUNCTION PTSUNNY   39  32  76 NW7       30.11F
MONTROSE       CLOUDY    37  32  82 N9        30.11S
EAGLE          PTSUNNY   34  27  75 CALM      30.08
RIFLE          PTSUNNY   40  28  62 W5        30.09F
DELTA          MOSUNNY   42  34  71 SW14      30.10F
NUCLA          PTSUNNY   36  32  87 CALM      30.14S
$$

COZ017>023-064>068-182200-
...SOUTHWEST COLORADO...

CITY           SKY/WX    TMP DP  RH WIND       PRES   REMARKS
DURANGO        CLOUDY    34  24  67 W6        30.09F WCI  29
CORTEZ         CLOUDY    34  31  88 SE6       30.12S WCI  29
PAGOSA SPRINGS CLOUDY    32  25  74 SW5       30.08F WCI  27
TELLURIDE      CLOUDY    26  22  82 W8        30.08S WCI  18
WOLF CREEK PAS SNOW      14  12  92 MISG      30.04S VSB 1/4
$$

COZ009-010-012-014-032>034-037-058>063-182200-
...CENTRAL COLORADO...

CITY           SKY/WX    TMP DP  RH WIND       PRES   REMARKS
ASPEN          PTSUNNY   30  23  75 NW7       30.04F WCI  23
BUENA VISTA    FAIR      39  15  37 SE10      29.99F
COPPER MTN     LGT SNOW  19  14  79 W16       30.02S WCI   5
BERTHOUD PASS  CLOUDY    10   5  79 N8        30.02S WCI  -1
COTTONWOOD PAS CLOUDY    34   9  35 SW12G17   30.00S WCI  25
GUNNISON       MOSUNNY   30  19  64 NE3       30.08F
KREMMLING      CLOUDY    28  19  69 CALM      30.09S
LEADVILLE      CLOUDY    24  10  55 NW12      30.00F WCI  13
MONARCH PASS   CLOUDY    14  12  92 MISG      30.11S
SALIDA         FAIR      40  18  40 SW14      30.07F
SUNLIGHT       LGT SNOW N/A N/A N/A CALM      30.06S
WILKERSON PASS SUNNY     27  16  63 SW5       30.02S WCI  21
$$

COZ069>075-182200-
...SAN LUIS VALLEY/SANGRE DE CRISTO MOUNTAINS...

CITY           SKY/WX    TMP DP  RH WIND       PRES   REMARKS
ALAMOSA        CLOUDY    30  21  69 VRB5      30.06F WCI  25
LA VETA PASS   MOSUNNY   23  19  86 S13G24    30.00F FOG     WCI  11
SAGUACHE       CLOUDY    36  23  60 S8        30.05S
$$

COZ035-036-038>040-182200-
...NORTHERN COLORADO FRONT RANGE...

CITY           SKY/WX    TMP DP  RH WIND       PRES   REMARKS
DENVER INTL AP MOSUNNY   43  27  53 CALM      29.99F
DMNS CITY PARK   N/A     44  26  48 NE3       29.99S
AURORA         PTSUNNY   44  27  52 VRB6      29.99F
FRONT RANGE AP NOT AVBL
ERIE MUNI ARPT   N/A     44  25  47 W3        30.00S
BOULDER MUN AP MOSUNNY   43  23  45 N3        29.99F
CENTENNIAL     MOSUNNY   42  24  49 CALM      29.98F
BROOMFIELD     PTSUNNY   43  25  49 CALM      29.99F
FORT COLLINS   MOSUNNY   43  25  49 CALM      30.02S
LONGMONT       MOSUNNY   47  24  41 CALM      30.02R
$$

COZ041-046-047-076>085-087-088-182200-
...PIKES PEAK/PALMER DIVIDE AND SOUTHERN FOOTHILLS...

CITY           SKY/WX    TMP DP  RH WIND       PRES   REMARKS
COLO. SPRINGS  MOSUNNY   41  26  55 VRB5      29.99F
A. F. ACADEMY  MOSUNNY   41  24  51 S6        29.98F
ELLICOTT       NOT AVBL
FALCON         NOT AVBL
FORT CARSON    PTSUNNY   44  30  59 VRB6      29.98F
LIMON          SUNNY     43  22  43 S12       30.00F
MONUMENT HILL  SUNNY     39  27  60 SE6       29.98S
TRINIDAD       SUNNY     46  27  47 E10       29.99F
$$

COZ042>045-048>051-090-091-182200-
...NORTHEAST COLORADO...

CITY           SKY/WX    TMP DP  RH WIND       PRES   REMARKS
GREELEY ARPT   MOSUNNY   41  25  52 CALM      30.00F
AKRON          PTSUNNY   31  26  82 SW6       30.01F WCI  25
BURLINGTON     SUNNY     42  30  62 W3        30.03F
WRAY           PTSUNNY   30  27  88 CALM      30.04F FOG
STERLING       PTSUNNY   32  28  86 SW6       30.02F WCI  26
HOLYOKE        NOT AVBL
FORT MORGAN    PTSUNNY   33  24  69 CALM      30.03S
$$

COZ086-089-092>099-182200-
...SOUTHEAST COLORADO...

CITY           SKY/WX    TMP DP  RH WIND       PRES   REMARKS
PUEBLO         SUNNY     46  30  53 SE9       29.99F
LA JUNTA       SUNNY     44  30  57 E7        30.02F
LAMAR          SUNNY     44  29  55 CALM      30.03F
SPRINGFIELD      N/A     44  30  57 VRB3      30.03S
$$


USA.gov is the U.S. government's official web portal to all federal, state and local government web resources and services.